D-SAT (42794 NORAD) Tracking and Keplerian Element Data

This shows tracking and keplerian element data for the satellite.

Feedback or suggestion? Click here.




ElementValue
Catalog42794
NameD-SAT
Epoch Orbit9969
Epoch Day111.69269016
Epoch Year2019
RAAN158.9238
Inclination97.5464
Eccentricity0.0125903
Argument of Perigee335.6213
Mean Anonmoly23.9082
Mean Motion14.91063258
Decay Rate1.33E-06
L11 42794U 17036AF 19111.69269016 .00000133 00000-0 17188-4 0 9991
L22 42794 97.5464 158.9238 0125903 335.6213 23.9082 14.91063258 99698

Live tracking and technical data element details for D-SAT (NORAD 42794). D-SAT can be tracked NOW for your location showing map with azimuth and elevation plus other details from your city location.

Track the satellite on the map from your city or location and see movement details for azimuth, elevation, latitude, longitude, range, height, and movement on the map or in text.







IsCatalogInMostPopularTable: catalog: 42794, numindb: 211
Update: records affected: 1



GetName: 42794 D-SAT

Hit Count: updated at: Tue, 23 Apr 2019 02:32:18 GMT